IUS DEB, 43365

Orbit data source: Space-Track

IUS DEB, 43365 is space debris originally from a launch on Fri, 23 Jul 1999 UTC launched from the Air Force Eastern Test Range (AFETR). Debris objects in space refer to the collection of defunct objects orbiting the Earth. Examples of debris include non-operational satellites, rocket bodies, and fragments generated from explosions, collisions, or faulty payload assembly.

Loading next visibility...
Identifier
43365, 1999-040N
Orbit
Active
Last TLE update
2 months ago
Origin
Manufacturer
Boeing/Kent
Mission
Spacecraft
Bus & Motor
Unknown
Mass
Unknown
Launch date (UTC)
1999-07-23 (26 years ago)
Launch vehicle
Unknown
Launch site
Air Force Eastern Test Range (AFETR)
Object type
Payload
Rocket body
Debris
Shape & HBR
Unknown
Radar Cross Section
Small (<0.1 m²)

Expand to show TLE details & history

TLE from 2 months ago
0 IUS DEB
1 43365U 99040N   25129.13899230  .00000019  00000-0  00000-0 0  9997
2 43365  27.6693  92.4994 2851766 183.5340 173.9724  7.22077464323798
Epoch: 2025-05-09T03:20Z
TLE epoch observation values (Epoch: 2025-05-09T03:20:08.934Z)
Latitude
-0.00001°
Longitude
175.26272°
Altitude
8,140.789 km
Speed
4.435 km/s
True Right ascension
06h 09m 59s
True Declination
0° 00' 00"
Sunlit
Object was in daylight at epoch
Visualization orbit readout
Latitude
10.84344°
Longitude
-101.75798°
Altitude
7,510.774 km
Speed
4.707 km/s
Apparent Right ascension
13h 01m 24s
Apparent Declination
-5° 48' 35"
Sunlit
Object is in daylight
Visualization observer readout
Local Sidereal Time
05:46:16
Azimuth
82.265° E
Elevation
-18.1°
Doppler factor
1
Orbital elements
Apogee altitude
8,157.163 km
Perigee altitude
1,706.49 km
Semi-major axis
11,309.964 km
Eccentricity
0.28518
Inclination
27.6693°
RAAN
92.4994°
Arg. of periapsis
183.534°
True anomaly
Unknown
Mean anomaly
173.9724°
Eccentric anomaly
Unknown
Mean motion
1.80448 °/min
Orbital period
199.5 mins
BSTAR
0
Loading maneuver chart data...
Loading SW <> Apogee altitude chart data...
Loading historical data...
Loading historical data...
Loading historical data...
Loading historical data...
Loading historical data...
Loading historical data...
Loading historical data...

IUS DEB Visibility forecast

Observer location: undefined°, undefined°

Span
Click to sort rows by Start time (UTC) header in descending order
Start Az.
Max El. time (UTC)
Max El. Az.
Max El.
End time (UTC)
End Az.
92 mins2025-07-01 20:00:33.710Z260.96° W2025-07-01 20:37:33.710Z186.64° SSW42.466°2025-07-01 21:32:33.710Z117.24° SE
84 mins2025-07-01 23:48:33.710Z275.492° WNW2025-07-02 00:33:33.710Z222.085° SW33.048°2025-07-02 01:12:33.710Z160.556° S
58 mins2025-07-02 15:39:33.710Z212.59° SW2025-07-02 15:56:33.710Z146.464° SSE35.993°2025-07-02 16:37:33.710Z84.982° E
|